User: anonymous   Login
Location: Unspecified
(0.0000°N, 0.0000°E)
Time: 21:41:38
(UTC+00:00)
Language:

USA 270 - Orbit

View from above orbital plane
View from above orbital plane
View from above satellite
View from above satellite

Ground track
Ground track

The orbit data is extracted from the following two-line orbital elements,

1 41744U 16052A   20054.52479519  .00000075  00000-0  00000+0 0  9998
2 41744   0.2855  97.8374 0001013  33.9265 228.2135  1.00088579  5021
Epoch (UTC): 23 February 2020 12:35:42
Eccentricity: 0.0001013
inclination: 0.2855°
perigee height: 35833 km
apogee height: 35842 km
right ascension of ascending node: 97.8374°
argument of perigee: 33.9265°
revolutions per day: 1.00088579
mean anomaly at epoch: 228.2135°
orbit number at epoch: 502

The dashed part of the orbit path shows where the satellite is in the earth's shadow,  

DLR